This is the latest recevied weather packets stored in our database for station/object WA6OOO. If no packets are shown the sender has not sent any weather packets the latest 10 day(s).
| Time | Temp. | Humidity | Pressure | Rain* | Wind** | Luminosity | Snow |
|---|---|---|---|---|---|---|---|
| 1777861049 | 15.56° C | 77% | 1016.5 hPa | 0 mm | - | 19 W/m² | - |
| 1777860746 | 15.56° C | 78% | 1016.5 hPa | 0 mm | - | 23 W/m² | - |
| 1777860443 | 15.56° C | 78% | 1016.5 hPa | 0 mm | - | 27 W/m² | - |
| 1777860140 | 15° C | 78% | 1016.5 hPa | 0 mm | - | 40 W/m² | - |
| 1777859836 | 15.56° C | 79% | 1016.6 hPa | 0 mm | - | 42 W/m² | - |
| 1777859532 | 15.56° C | 78% | 1017 hPa | 0 mm | - | 41 W/m² | - |
| 1777859228 | 15.56° C | 78% | 1016.8 hPa | 0 mm | - | 50 W/m² | - |
| 1777858925 | 15.56° C | 77% | 1016.5 hPa | 0 mm | - | 53 W/m² | - |
| 1777858623 | 15.56° C | 77% | 1016.4 hPa | 0 mm | - | 64 W/m² | - |
| 1777858320 | 15.56° C | 77% | 1016.2 hPa | 0 mm | - | 47 W/m² | - |
| 1777858016 | 15.56° C | 77% | 1016.5 hPa | 0 mm | - | 72 W/m² | - |
| 1777857715 | 15.56° C | 76% | 1016.6 hPa | 0 mm | - | 70 W/m² | - |
| 1777857411 | 15.56° C | 77% | 1016.5 hPa | 0 mm | - | 76 W/m² | - |
| 1777857108 | 16.11° C | 76% | 1016.5 hPa | 0 mm | - | 79 W/m² | - |
| 1777856804 | 16.11° C | 75% | 1016.4 hPa | 0 mm | - | 88 W/m² | - |
| 1777856500 | 16.11° C | 76% | 1016.4 hPa | 0 mm | - | 86 W/m² | - |
| 1777856197 | 16.11° C | 76% | 1016.4 hPa | 0 mm | - | 92 W/m² | - |
| 1777855893 | 16.11° C | 77% | 1016.4 hPa | 0 mm | - | 96 W/m² | - |
| 1777855592 | 16.11° C | 74% | 1016.3 hPa | 0 mm | - | 111 W/m² | - |
| 1777855289 | 16.67° C | 74% | 1016.3 hPa | 0 mm | - | 127 W/m² | - |
| 1777854985 | 16.67° C | 73% | 1016 hPa | 0 mm | - | 145 W/m² | - |
| 1777854681 | 17.78° C | 69% | 1016.2 hPa | 0 mm | - | 181 W/m² | - |
| 1777854378 | 17.78° C | 68% | 1016.3 hPa | 0 mm | - | 409 W/m² | - |
| 1777854076 | 17.78° C | 67% | 1016.2 hPa | 0 mm | - | 249 W/m² | - |
| 1777853774 | 17.78° C | 65% | 1016.3 hPa | 0 mm | - | 419 W/m² | - |
* Rain latest hour (hover to see other rain measurements)
** Current wind speed in m/s (hover to see current wind gust speed)